sat.trackr.live / text

‹ back to catalog

YAOGAN-39 05B

NORAD 58558 · 2023-194B

PAYLOAD ACTIVE UNKNOWN

§ Identity

Operator
Country
PRC
Launch date
2023-12-10
Launch site
XICLF
Launch vehicle
Mass (kg)
RCS (m²)

External: N2YO · Heavens-Above · Gunter

§ Orbital elements

Epoch: 2026-09-21T23:32:18.471840Z

Period
94.94 min
Inclination
34.9911°
Eccentricity
0.0010135
Mean motion
15.16677488 rev/d
Perigee alt
508.9 km
Apogee alt
522.9 km
Semi-major
6,894.0 km
B*
1.6559e-4
RAAN
197.9288°
Arg perigee
61.7926°
Mean anomaly
298.3809°
Rev number
15,480

§ Raw data

YAOGAN-39 05B1 58558U 23194B   26264.98076935  .00003288  00000+0  16559-3 0  99962 58558  34.9911 197.9288 0010135  61.7926 298.3809 15.16677488154805

JSON: /api/v1/satellites/58558 · /tle

For live sub-satellite position, see the globe view (requires WebGL).

§ Visibility from observer

Set your observer location to see the next 7 days of passes ≥ 10°. The values pass through the URL so the page stays shareable.

No JS? Fill the form by hand. The geolocation button needs JavaScript.